| time (UTC) | temp F | wind direction | speed knots | gust knots | rain 1hr in | rain 24hr in | rain mn in | humidity % | barometer mb |
| 20260504224218 | 77 | 0 | 0.0 | 0.0 | 0.00 | 0.00 | 0.00 | 99 | 978.0 |
| 20260504223656 | 77 | 0 | 0.0 | 0.0 | 0.00 | 0.00 | 0.00 | 99 | 978.0 |
| 20260504223134 | 77 | 0 | 0.0 | 0.0 | 0.00 | 0.00 | 0.00 | 99 | 978.0 |
| 20260504222612 | 77 | 0 | 0.0 | 0.0 | 0.00 | 0.00 | 0.00 | 99 | 978.0 |
| 20260504222050 | 77 | 0 | 0.0 | 0.0 | 0.00 | 0.00 | 0.00 | 99 | 978.0 |
| 20260504221528 | 77 | 0 | 0.0 | 0.0 | 0.00 | 0.00 | 0.00 | 99 | 978.0 |
| 20260504221006 | 77 | 0 | 0.0 | 0.0 | 0.00 | 0.00 | 0.00 | 99 | 978.0 |
| 20260504220444 | 77 | 0 | 0.0 | 0.0 | 0.00 | 0.00 | 0.00 | 99 | 977.0 |
| 20260504215922 | 77 | 0 | 0.0 | 0.0 | 0.00 | 0.00 | 0.00 | 99 | 977.0 |
| 20260504215400 | 77 | 0 | 0.0 | 0.0 | 0.00 | 0.00 | 0.00 | 99 | 977.0 |
| 20260504214838 | 77 | 0 | 0.0 | 0.0 | 0.00 | 0.00 | 0.00 | 99 | 977.0 |
| 20260504214316 | 77 | 0 | 0.0 | 0.0 | 0.00 | 0.00 | 0.00 | 99 | 977.0 |
| 20260504213754 | 77 | 0 | 0.0 | 0.0 | 0.00 | 0.00 | 0.00 | 99 | 977.0 |
| 20260504211239 | 76 | 0 | 0.0 | 0.0 | 0.00 | 0.00 | 0.00 | 99 | 977.0 |
| 20260504210717 | 77 | 0 | 0.0 | 0.0 | 0.00 | 0.00 | 0.00 | 99 | 977.0 |
| 20260504210155 | 77 | 0 | 0.0 | 0.0 | 0.00 | 0.00 | 0.00 | 99 | 977.0 |
| 20260504205633 | 77 | 0 | 0.0 | 0.0 | 0.00 | 0.00 | 0.00 | 99 | 977.0 |
| 20260504205111 | 77 | 0 | 0.0 | 0.0 | 0.00 | 0.00 | 0.00 | 99 | 977.0 |
| 20260504204549 | 77 | 0 | 0.0 | 0.0 | 0.00 | 0.00 | 0.00 | 99 | 977.0 |
| 20260504204027 | 77 | 0 | 0.0 | 0.0 | 0.00 | 0.00 | 0.00 | 99 | 977.0 |
| 20260504203504 | 78 | 0 | 0.0 | 0.0 | 0.00 | 0.00 | 0.00 | 99 | 977.0 |
| 20260504202942 | 78 | 0 | 0.0 | 0.0 | 0.00 | 0.00 | 0.00 | 99 | 977.0 |
| 20260504202420 | 78 | 0 | 0.0 | 0.0 | 0.00 | 0.00 | 0.00 | 99 | 977.0 |
| 20260504201952 | 78 | 0 | 0.0 | 0.0 | 0.00 | 0.00 | 0.00 | 99 | 977.0 |
| 20260504201430 | 78 | 0 | 0.0 | 0.0 | 0.00 | 0.00 | 0.00 | 99 | 977.0 |
| 20260504200907 | 78 | 0 | 0.0 | 0.0 | 0.00 | 0.00 | 0.00 | 99 | 977.0 |
| 20260504200345 | 78 | 0 | 0.0 | 0.0 | 0.00 | 0.00 | 0.00 | 99 | 977.0 |
| 20260504195823 | 78 | 0 | 0.0 | 0.0 | 0.00 | 0.00 | 0.00 | 99 | 977.0 |
| 20260504195301 | 78 | 0 | 0.0 | 0.0 | 0.00 | 0.00 | 0.00 | 99 | 978.0 |
| 20260504194739 | 78 | 0 | 0.0 | 0.0 | 0.00 | 0.00 | 0.00 | 99 | 978.0 |
| 20260504194218 | 78 | 0 | 0.0 | 0.0 | 0.00 | 0.00 | 0.00 | 99 | 978.0 |
| 20260504193655 | 78 | 0 | 0.0 | 0.0 | 0.00 | 0.00 | 0.00 | 99 | 978.0 |
| 20260504193133 | 78 | 0 | 0.0 | 0.0 | 0.00 | 0.00 | 0.00 | 99 | 978.0 |
| 20260504192611 | 78 | 0 | 0.0 | 0.0 | 0.00 | 0.00 | 0.00 | 99 | 978.0 |
| 20260504192049 | 78 | 0 | 0.0 | 0.0 | 0.00 | 0.00 | 0.00 | 99 | 978.0 |
| 20260504191527 | 78 | 0 | 0.0 | 0.0 | 0.00 | 0.00 | 0.00 | 99 | 978.0 |
| 20260504191005 | 78 | 0 | 0.0 | 0.0 | 0.00 | 0.00 | 0.00 | 99 | 978.0 |
| 20260504190443 | 78 | 0 | 0.0 | 0.0 | 0.00 | 0.00 | 0.00 | 99 | 978.0 |
| 20260504185921 | 78 | 0 | 0.0 | 0.0 | 0.00 | 0.00 | 0.00 | 99 | 978.0 |
| 20260504185359 | 78 | 0 | 0.0 | 0.0 | 0.00 | 0.00 | 0.00 | 99 | 978.0 |
| 20260504184837 | 78 | 0 | 0.0 | 0.0 | 0.00 | 0.00 | 0.00 | 99 | 978.0 |
| 20260504184315 | 78 | 0 | 0.0 | 0.0 | 0.00 | 0.00 | 0.00 | 99 | 978.0 |
| 20260504183753 | 78 | 0 | 0.0 | 0.0 | 0.00 | 0.00 | 0.00 | 99 | 978.0 |
| 20260504183231 | 78 | 0 | 0.0 | 0.0 | 0.00 | 0.00 | 0.00 | 99 | 978.0 |
| 20260504182709 | 78 | 0 | 0.0 | 0.0 | 0.00 | 0.00 | 0.00 | 99 | 978.0 |
| 20260504182147 | 78 | 0 | 0.0 | 0.0 | 0.00 | 0.00 | 0.00 | 99 | 978.0 |
| 20260504181625 | 78 | 0 | 0.0 | 0.0 | 0.00 | 0.00 | 0.00 | 99 | 978.0 |
| 20260504181103 | 78 | 0 | 0.0 | 0.0 | 0.00 | 0.00 | 0.00 | 99 | 978.0 |
| 20260504180541 | 78 | 0 | 0.0 | 0.0 | 0.00 | 0.00 | 0.00 | 99 | 978.0 |
| 20260504180019 | 79 | 0 | 0.0 | 0.0 | 0.00 | 0.00 | 0.00 | 99 | 978.0 |
| 20260504175457 | 78 | 0 | 0.0 | 0.0 | 0.00 | 0.00 | 0.00 | 99 | 978.0 |
| 20260504174935 | 78 | 0 | 0.0 | 0.0 | 0.00 | 0.00 | 0.00 | 99 | 978.0 |
| 20260504174413 | 78 | 0 | 0.0 | 0.0 | 0.00 | 0.00 | 0.00 | 99 | 978.0 |
| 20260504173851 | 78 | 0 | 0.0 | 0.0 | 0.00 | 0.00 | 0.00 | 99 | 978.0 |
| 20260504173329 | 78 | 0 | 0.0 | 0.0 | 0.00 | 0.00 | 0.00 | 99 | 978.0 |
| 20260504172807 | 79 | 0 | 0.0 | 0.0 | 0.00 | 0.00 | 0.00 | 99 | 978.0 |
| 20260504172245 | 79 | 0 | 0.0 | 0.0 | 0.00 | 0.00 | 0.00 | 99 | 979.0 |
| 20260504171723 | 79 | 0 | 0.0 | 0.0 | 0.00 | 0.00 | 0.00 | 99 | 979.0 |
| 20260504171201 | 79 | 0 | 0.0 | 0.0 | 0.00 | 0.00 | 0.00 | 99 | 979.0 |
| 20260504170639 | 79 | 0 | 0.0 | 0.0 | 0.00 | 0.00 | 0.00 | 99 | 979.0 |
| 20260504170117 | 79 | 0 | 0.0 | 0.0 | 0.00 | 0.00 | 0.00 | 99 | 979.0 |
| 20260504160214 | 80 | 0 | 0.0 | 0.0 | 0.00 | 0.00 | 0.00 | 99 | 979.0 |
| 20260504150834 | 79 | 0 | 0.0 | 0.0 | 0.00 | 0.00 | 0.00 | 99 | 980.0 |
| 20260504150313 | 80 | 0 | 0.0 | 0.0 | 0.00 | 0.00 | 0.00 | 99 | 980.0 |
| 20260504140932 | 81 | 0 | 0.0 | 0.0 | 0.00 | 0.00 | 0.00 | 99 | 980.0 |
| 20260504140410 | 81 | 0 | 0.0 | 0.0 | 0.00 | 0.00 | 0.00 | 99 | 980.0 |
| 20260504130508 | 80 | 0 | 0.0 | 0.0 | 0.00 | 0.00 | 0.00 | 99 | 979.0 |
| 20260504110704 | 82 | 0 | 0.0 | 0.0 | 0.00 | 0.00 | 0.00 | 99 | 978.0 |
| 20260504110141 | 82 | 0 | 0.0 | 0.0 | 0.00 | 0.00 | 0.00 | 99 | 978.0 |
| 20260504100240 | 83 | 0 | 0.0 | 0.0 | 0.00 | 0.00 | 0.00 | 99 | 977.0 |
| 20260504081519 | 87 | 0 | 0.0 | 0.0 | 0.00 | 0.00 | 0.00 | 99 | 976.0 |
| 20260504080957 | 88 | 0 | 0.0 | 0.0 | 0.00 | 0.00 | 0.00 | 93 | 976.0 |
| 20260504080435 | 88 | 0 | 0.0 | 0.0 | 0.00 | 0.00 | 0.00 | 99 | 976.0 |
| 20260504050341 | 92 | 0 | 0.0 | 0.0 | 0.00 | 0.00 | 0.00 | 76 | 978.0 |
| 20260504045819 | 91 | 0 | 0.0 | 0.0 | 0.00 | 0.00 | 0.00 | 87 | 978.0 |
| 20260504045257 | 92 | 0 | 0.0 | 0.0 | 0.00 | 0.00 | 0.00 | 82 | 978.0 |
| 20260504044735 | 91 | 0 | 0.0 | 0.0 | 0.00 | 0.00 | 0.00 | 85 | 979.0 |
| 20260504044213 | 89 | 0 | 0.0 | 0.0 | 0.00 | 0.00 | 0.00 | 85 | 979.0 |
| 20260504043651 | 91 | 0 | 0.0 | 0.0 | 0.00 | 0.00 | 0.00 | 83 | 979.0 |
| 20260504043129 | 90 | 0 | 0.0 | 0.0 | 0.00 | 0.00 | 0.00 | 90 | 979.0 |
| 20260504042607 | 91 | 0 | 0.0 | 0.0 | 0.00 | 0.00 | 0.00 | 87 | 979.0 |
| 20260504042045 | 90 | 0 | 0.0 | 0.0 | 0.00 | 0.00 | 0.00 | 87 | 979.0 |
| 20260504041523 | 90 | 0 | 0.0 | 0.0 | 0.00 | 0.00 | 0.00 | 91 | 979.0 |
| 20260504041001 | 91 | 0 | 0.0 | 0.0 | 0.00 | 0.00 | 0.00 | 90 | 979.0 |
| 20260504040439 | 89 | 0 | 0.0 | 0.0 | 0.00 | 0.00 | 0.00 | 89 | 979.0 |
| 20260504035917 | 88 | 0 | 0.0 | 0.0 | 0.00 | 0.00 | 0.00 | 96 | 979.0 |
| 20260504035355 | 90 | 0 | 0.0 | 0.0 | 0.00 | 0.00 | 0.00 | 88 | 979.0 |
| 20260504034833 | 91 | 0 | 0.0 | 0.0 | 0.00 | 0.00 | 0.00 | 85 | 979.0 |
| 20260504034310 | 87 | 0 | 0.0 | 0.0 | 0.00 | 0.00 | 0.00 | 92 | 979.0 |
| 20260504033748 | 88 | 0 | 0.0 | 0.0 | 0.00 | 0.00 | 0.00 | 99 | 979.0 |
| 20260504033226 | 90 | 0 | 0.0 | 0.0 | 0.00 | 0.00 | 0.00 | 90 | 979.0 |
| 20260504032704 | 91 | 0 | 0.0 | 0.0 | 0.00 | 0.00 | 0.00 | 92 | 980.0 |
| 20260504032142 | 91 | 0 | 0.0 | 0.0 | 0.00 | 0.00 | 0.00 | 91 | 980.0 |
| 20260504031620 | 87 | 0 | 0.0 | 0.0 | 0.00 | 0.00 | 0.00 | 92 | 980.0 |
| 20260504031058 | 90 | 0 | 0.0 | 0.0 | 0.00 | 0.00 | 0.00 | 95 | 980.0 |
| 20260504030536 | 89 | 0 | 0.0 | 0.0 | 0.00 | 0.00 | 0.00 | 92 | 980.0 |
| 20260504030014 | 90 | 0 | 0.0 | 0.0 | 0.00 | 0.00 | 0.00 | 94 | 980.0 |
| 20260504025452 | 86 | 0 | 0.0 | 0.0 | 0.00 | 0.00 | 0.00 | 99 | 980.0 |
| 20260504024930 | 89 | 0 | 0.0 | 0.0 | 0.00 | 0.00 | 0.00 | 99 | 980.0 |
| 20260504024408 | 90 | 0 | 0.0 | 0.0 | 0.00 | 0.00 | 0.00 | 95 | 980.0 |
| 20260504023846 | 87 | 0 | 0.0 | 0.0 | 0.00 | 0.00 | 0.00 | 99 | 980.0 |
| 20260504023324 | 88 | 0 | 0.0 | 0.0 | 0.00 | 0.00 | 0.00 | 99 | 980.0 |
| 20260504022802 | 87 | 0 | 0.0 | 0.0 | 0.00 | 0.00 | 0.00 | 99 | 980.0 |
| 20260504022240 | 85 | 0 | 0.0 | 0.0 | 0.00 | 0.00 | 0.00 | 99 | 980.0 |
| 20260504021718 | 86 | 0 | 0.0 | 0.0 | 0.00 | 0.00 | 0.00 | 99 | 980.0 |
| 20260504021156 | 85 | 0 | 0.0 | 0.0 | 0.00 | 0.00 | 0.00 | 99 | 980.0 |
| 20260504020634 | 85 | 0 | 0.0 | 0.0 | 0.00 | 0.00 | 0.00 | 99 | 980.0 |
| 20260504020112 | 84 | 0 | 0.0 | 0.0 | 0.00 | 0.00 | 0.00 | 99 | 980.0 |
| 20260504015550 | 84 | 0 | 0.0 | 0.0 | 0.00 | 0.00 | 0.00 | 99 | 980.0 |
| 20260504015028 | 84 | 0 | 0.0 | 0.0 | 0.00 | 0.00 | 0.00 | 99 | 980.0 |
| 20260504014506 | 83 | 0 | 0.0 | 0.0 | 0.00 | 0.00 | 0.00 | 99 | 980.0 |
| 20260504013944 | 83 | 0 | 0.0 | 0.0 | 0.00 | 0.00 | 0.00 | 99 | 980.0 |
| 20260504013422 | 83 | 0 | 0.0 | 0.0 | 0.00 | 0.00 | 0.00 | 99 | 980.0 |
| 20260504012900 | 82 | 0 | 0.0 | 0.0 | 0.00 | 0.00 | 0.00 | 99 | 980.0 |
| 20260504012338 | 82 | 0 | 0.0 | 0.0 | 0.00 | 0.00 | 0.00 | 99 | 980.0 |
| 20260504011816 | 83 | 0 | 0.0 | 0.0 | 0.00 | 0.00 | 0.00 | 99 | 980.0 |
| 20260504011254 | 82 | 0 | 0.0 | 0.0 | 0.00 | 0.00 | 0.00 | 99 | 980.0 |
| 20260504010732 | 82 | 0 | 0.0 | 0.0 | 0.00 | 0.00 | 0.00 | 99 | 980.0 |
| 20260504010210 | 82 | 0 | 0.0 | 0.0 | 0.00 | 0.00 | 0.00 | 99 | 980.0 |
| 20260504005648 | 82 | 0 | 0.0 | 0.0 | 0.00 | 0.00 | 0.00 | 99 | 980.0 |
| 20260504005126 | 81 | 0 | 0.0 | 0.0 | 0.00 | 0.00 | 0.00 | 99 | 980.0 |
| 20260504004604 | 81 | 0 | 0.0 | 0.0 | 0.00 | 0.00 | 0.00 | 99 | 980.0 |
| 20260504004042 | 81 | 0 | 0.0 | 0.0 | 0.00 | 0.00 | 0.00 | 99 | 980.0 |
| 20260504003520 | 81 | 0 | 0.0 | 0.0 | 0.00 | 0.00 | 0.00 | 99 | 980.0 |
| 20260504002958 | 80 | 0 | 0.0 | 0.0 | 0.00 | 0.00 | 0.00 | 99 | 980.0 |
| 20260504002436 | 81 | 0 | 0.0 | 0.0 | 0.00 | 0.00 | 0.00 | 99 | 980.0 |
| 20260504001915 | 80 | 0 | 0.0 | 0.0 | 0.00 | 0.00 | 0.00 | 99 | 980.0 |
| 20260504001352 | 80 | 0 | 0.0 | 0.0 | 0.00 | 0.00 | 0.00 | 99 | 979.0 |
| 20260504000830 | 80 | 0 | 0.0 | 0.0 | 0.00 | 0.00 | 0.00 | 99 | 979.0 |
| 20260504000308 | 79 | 0 | 0.0 | 0.0 | 0.00 | 0.00 | 0.00 | 99 | 979.0 |
| 20260503235746 | 80 | 0 | 0.0 | 0.0 | 0.00 | 0.00 | 0.00 | 99 | 979.0 |
| 20260503235224 | 79 | 0 | 0.0 | 0.0 | 0.00 | 0.00 | 0.00 | 99 | 979.0 |
| 20260503234702 | 79 | 0 | 0.0 | 0.0 | 0.00 | 0.00 | 0.00 | 99 | 979.0 |
| 20260503234140 | 78 | 0 | 0.0 | 0.0 | 0.00 | 0.00 | 0.00 | 99 | 979.0 |
| 20260503233618 | 78 | 0 | 0.0 | 0.0 | 0.00 | 0.00 | 0.00 | 99 | 979.0 |
| 20260503233056 | 78 | 0 | 0.0 | 0.0 | 0.00 | 0.00 | 0.00 | 99 | 979.0 |
| 20260503232534 | 77 | 0 | 0.0 | 0.0 | 0.00 | 0.00 | 0.00 | 99 | 979.0 |
| 20260503232012 | 78 | 0 | 0.0 | 0.0 | 0.00 | 0.00 | 0.00 | 99 | 979.0 |
| 20260503231450 | 77 | 0 | 0.0 | 0.0 | 0.00 | 0.00 | 0.00 | 99 | 979.0 |
| 20260503230928 | 78 | 0 | 0.0 | 0.0 | 0.00 | 0.00 | 0.00 | 99 | 979.0 |
| 20260503230406 | 77 | 0 | 0.0 | 0.0 | 0.00 | 0.00 | 0.00 | 99 | 979.0 |
| 20260503225844 | 77 | 0 | 0.0 | 0.0 | 0.00 | 0.00 | 0.00 | 99 | 979.0 |
| 20260503225322 | 77 | 0 | 0.0 | 0.0 | 0.00 | 0.00 | 0.00 | 99 | 979.0 |
| 20260503224800 | 78 | 0 | 0.0 | 0.0 | 0.00 | 0.00 | 0.00 | 99 | 979.0 |